Hourly Weather Kozolin

Today, 28 October, Wednesday

Time Temperature Precipitation Wind Pressure Humidity
00:00 +10°C° 0.2 mm 2 mps 750 mmHg 89%
01:00 +9°C° 0 mm 2 mps 751 mmHg 90%
02:00 +9°C° 0 mm 2 mps 750 mmHg 91%
03:00 +9°C° 0 mm 2 mps 750 mmHg 92%
04:00 +8°C° 0 mm 2 mps 750 mmHg 92%
05:00 +8°C° 0 mm 2 mps 750 mmHg 92%
06:00 +8°C° 0 mm 2 mps 750 mmHg 92%
07:00 +7°C° 0 mm 3 mps 751 mmHg 91%
08:00 +9°C° 0 mm 3 mps 751 mmHg 83%
09:00 +10°C° 0 mm 4 mps 751 mmHg 75%
10:00 +12°C° 0 mm 4 mps 751 mmHg 67%
11:00 +13°C° 0 mm 4 mps 750 mmHg 65%
12:00 +13°C° 0 mm 4 mps 750 mmHg 63%
13:00 +14°C° 0 mm 4 mps 750 mmHg 61%
14:00 +13°C° 0 mm 4 mps 750 mmHg 65%
15:00 +13°C° 0 mm 3 mps 750 mmHg 69%
16:00 +12°C° 0 mm 3 mps 750 mmHg 73%
17:00 +12°C° 0 mm 3 mps 750 mmHg 73%
18:00 +11°C° 0 mm 3 mps 750 mmHg 73%
19:00 +11°C° 0 mm 3 mps 750 mmHg 72%
20:00 +10°C° 0 mm 3 mps 750 mmHg 73%
21:00 +10°C° 0 mm 3 mps 750 mmHg 73%
22:00 +9°C° 0 mm 3 mps 750 mmHg 74%
23:00 +9°C° 0 mm 3 mps 750 mmHg 76%

Tomorrow, 29 October, Thursday

Time Temperature Precipitation Wind Pressure Humidity
00:00 +9°C° 0 mm 3 mps 750 mmHg 79%
01:00 +8°C° 0 mm 3 mps 750 mmHg 81%
02:00 +8°C° 0 mm 3 mps 750 mmHg 83%
03:00 +8°C° 0 mm 3 mps 750 mmHg 85%
04:00 +7°C° 0 mm 3 mps 750 mmHg 88%
05:00 +7°C° 0 mm 3 mps 750 mmHg 89%
06:00 +7°C° 0 mm 3 mps 750 mmHg 89%
07:00 +7°C° 0 mm 3 mps 750 mmHg 90%
08:00 +8°C° 0 mm 4 mps 750 mmHg 85%
09:00 +10°C° 0 mm 4 mps 750 mmHg 79%
10:00 +11°C° 0 mm 4 mps 750 mmHg 74%
11:00 +12°C° 0 mm 5 mps 749 mmHg 71%
12:00 +12°C° 0 mm 5 mps 749 mmHg 69%
13:00 +13°C° 0 mm 5 mps 749 mmHg 66%
14:00 +12°C° 0.1 mm 4 mps 749 mmHg 70%
15:00 +12°C° 0.1 mm 3 mps 749 mmHg 74%
16:00 +11°C° 0.1 mm 3 mps 749 mmHg 77%
17:00 +10°C° 1.1 mm 4 mps 749 mmHg 80%
18:00 +10°C° 1.1 mm 4 mps 749 mmHg 82%
19:00 +8°C° 1.1 mm 5 mps 750 mmHg 85%
20:00 +8°C° 0.3 mm 5 mps 750 mmHg 83%
21:00 +8°C° 0.3 mm 5 mps 751 mmHg 81%
22:00 +8°C° 0.3 mm 5 mps 751 mmHg 79%
23:00 +7°C° 0 mm 5 mps 751 mmHg 81%

Day after tomorrow, 30 October, Friday

Time Temperature Precipitation Wind Pressure Humidity
00:00 +7°C° 0 mm 5 mps 751 mmHg 83%
01:00 +6°C° 0 mm 5 mps 752 mmHg 85%
02:00 +6°C° 0 mm 5 mps 752 mmHg 87%
03:00 +5°C° 0 mm 5 mps 752 mmHg 88%
04:00 +5°C° 0 mm 5 mps 753 mmHg 89%
05:00 +5°C° 0 mm 4 mps 753 mmHg 91%
06:00 +4°C° 0 mm 4 mps 753 mmHg 93%
07:00 +4°C° 0 mm 4 mps 753 mmHg 95%
08:00 +5°C° 0 mm 4 mps 753 mmHg 91%
09:00 +6°C° 0 mm 4 mps 753 mmHg 87%
10:00 +7°C° 0 mm 4 mps 753 mmHg 83%
11:00 +7°C° 0 mm 4 mps 753 mmHg 79%
12:00 +9°C° 0 mm 3 mps 753 mmHg 75%
13:00 +9°C° 0 mm 3 mps 752 mmHg 71%
14:00 +9°C° 0.1 mm 3 mps 752 mmHg 75%
15:00 +8°C° 0.1 mm 2 mps 752 mmHg 79%
16:00 +9°C° 0.1 mm 1 mps 752 mmHg 83%
17:00 +8°C° 0.3 mm 2 mps 752 mmHg 84%
18:00 +7°C° 0.3 mm 2 mps 752 mmHg 85%
19:00 +7°C° 0.3 mm 2 mps 752 mmHg 86%
20:00 +7°C° 0 mm 2 mps 752 mmHg 86%
21:00 +8°C° 0 mm 1 mps 753 mmHg 86%
22:00 +8°C° 0 mm 1 mps 753 mmHg 86%
23:00 +7°C° 0 mm 1 mps 754 mmHg 87%

31 October, Saturday

Time Temperature Precipitation Wind Pressure Humidity
00:00 +6°C° 0 mm 1 mps 754 mmHg 88%
01:00 +6°C° 0 mm 1 mps 755 mmHg 89%
02:00 +6°C° 0 mm 1 mps 755 mmHg 89%
03:00 +6°C° 0 mm 1 mps 756 mmHg 89%
04:00 +5°C° 0 mm 1 mps 756 mmHg 89%
05:00 +5°C° 0 mm 1 mps 757 mmHg 88%
06:00 +5°C° 0 mm 1 mps 757 mmHg 88%
07:00 +4°C° 0 mm 0 mps 758 mmHg 88%
08:00 +6°C° 0 mm 1 mps 758 mmHg 82%
09:00 +8°C° 0 mm 1 mps 759 mmHg 75%
10:00 +9°C° 0 mm 1 mps 759 mmHg 69%
11:00 +10°C° 0 mm 1 mps 759 mmHg 66%
12:00 +11°C° 0 mm 1 mps 759 mmHg 63%
13:00 +11°C° 0 mm 1 mps 759 mmHg 59%
14:00 +11°C° 0 mm 1 mps 759 mmHg 63%
15:00 +10°C° 0 mm 1 mps 759 mmHg 67%
16:00 +9°C° 0 mm 1 mps 759 mmHg 71%
17:00 +8°C° 0 mm 1 mps 759 mmHg 73%
18:00 +7°C° 0 mm 2 mps 759 mmHg 75%
19:00 +6°C° 0 mm 2 mps 759 mmHg 77%
20:00 +6°C° 0 mm 2 mps 759 mmHg 78%
21:00 +6°C° 0 mm 2 mps 759 mmHg 79%
22:00 +4°C° 0 mm 3 mps 759 mmHg 80%
23:00 +4°C° 0 mm 3 mps 759 mmHg 81%

1 November, Sunday

Time Temperature Precipitation Wind Pressure Humidity
00:00 +4°C° 0 mm 3 mps 759 mmHg 83%
01:00 +4°C° 0 mm 3 mps 759 mmHg 84%
02:00 +4°C° 0 mm 3 mps 759 mmHg 86%
03:00 +3°C° 0 mm 3 mps 759 mmHg 87%
04:00 +3°C° 0 mm 3 mps 758 mmHg 89%
05:00 +3°C° 0 mm 3 mps 758 mmHg 89%
06:00 +3°C° 0 mm 3 mps 758 mmHg 89%
07:00 +3°C° 0 mm 4 mps 758 mmHg 90%
08:00 +4°C° 0 mm 4 mps 758 mmHg 83%
09:00 +6°C° 0 mm 5 mps 758 mmHg 76%
10:00 +7°C° 0 mm 6 mps 757 mmHg 70%
11:00 +8°C° 0 mm 6 mps 757 mmHg 67%
12:00 +9°C° 0 mm 5 mps 757 mmHg 64%
13:00 +10°C° 0 mm 5 mps 757 mmHg 61%
14:00 +9°C° 0 mm 5 mps 756 mmHg 65%
15:00 +9°C° 0 mm 5 mps 756 mmHg 69%
16:00 +8°C° 0 mm 4 mps 755 mmHg 73%
17:00 +8°C° 0 mm 4 mps 756 mmHg 75%
18:00 +7°C° 0 mm 4 mps 756 mmHg 77%
19:00 +7°C° 0 mm 4 mps 756 mmHg 79%
20:00 +6°C° 0 mm 4 mps 756 mmHg 80%
21:00 +6°C° 0 mm 4 mps 755 mmHg 81%
22:00 +6°C° 0 mm 4 mps 755 mmHg 82%
23:00 +6°C° 0 mm 4 mps 755 mmHg 84%

2 November, Monday

Time Temperature Precipitation Wind Pressure Humidity
00:00 +6°C° 0 mm 4 mps 755 mmHg 86%
01:00 +6°C° 0 mm 4 mps 755 mmHg 87%
02:00 +5°C° 0 mm 4 mps 755 mmHg 88%
03:00 +5°C° 0 mm 4 mps 755 mmHg 89%
04:00 +5°C° 0 mm 4 mps 754 mmHg 89%
05:00 +5°C° 0 mm 4 mps 755 mmHg 89%
06:00 +5°C° 0 mm 3 mps 755 mmHg 90%
07:00 +5°C° 0 mm 3 mps 755 mmHg 90%
08:00 +6°C° 0 mm 4 mps 755 mmHg 85%
09:00 +8°C° 0 mm 4 mps 755 mmHg 80%
10:00 +10°C° 0 mm 4 mps 755 mmHg 76%
11:00 +11°C° 0 mm 4 mps 755 mmHg 74%
12:00 +11°C° 0 mm 4 mps 755 mmHg 71%
13:00 +12°C° 0 mm 4 mps 755 mmHg 69%
14:00 +12°C° 0 mm 4 mps 755 mmHg 72%
15:00 +11°C° 0 mm 4 mps 755 mmHg 75%
16:00 +11°C° 0 mm 3 mps 755 mmHg 78%
17:00 +11°C° 0 mm 3 mps 755 mmHg 79%
18:00 +10°C° 0 mm 4 mps 755 mmHg 80%
19:00 +10°C° 0 mm 4 mps 756 mmHg 81%
20:00 +10°C° 0 mm 4 mps 756 mmHg 82%
21:00 +9°C° 0 mm 3 mps 756 mmHg 83%
22:00 +9°C° 0 mm 3 mps 756 mmHg 84%
23:00 +9°C° 0 mm 3 mps 756 mmHg 84%
Show more